Location: Unspecified
(51.4970°N, 0.0000°E)
Time: 12:27:13
(UTC+00:00)

Cosmos 1570 Rocket - Visible Passes

Search period start: 04 April 2026 00:00
Search period end: 14 April 2026 00:00
Orbit: 760 x 783 km, 74.1° (Epoch: 29 March)

Date Brightness Start Highest point End Pass type
(mag) Time Alt. Az. Time Alt. Az. Time Alt. Az.
4 Apr 4.9 19:22:43 10° NNW 19:27:50 52° WSW 19:32:56 10° S visible
5 Apr 6.8 20:30:33 10° WNW 20:33:04 14° W 20:35:34 10° WSW visible
6 Apr 6.5 19:53:25 10° NW 19:57:18 21° W 20:01:13 10° SW visible
7 Apr 5.9 19:16:49 10° NW 19:21:29 32° WSW 19:26:08 10° SSW visible
9 Apr 7.0 19:48:26 10° WNW 19:50:46 13° W 19:53:05 10° WSW visible
